Tracking 22287 objects as of 27-Jan-2021
HD Live streaming from Space Station
objects crossing your sky now

GLOBALSTAR M094

Track GLOBALSTAR M094 now!
10-day predictions
GLOBALSTAR M094 is classified as:


NORAD ID: 39074
Int'l Code: 2013-005C
Perigee: 1,420.6 km
Apogee: 1,420.9 km
Inclination: 52.0 °
Period: 114.1 minutes
Semi major axis: 7791 km
RCS: 3.814 m2 (large)
Launch date: February 6, 2013
Source: Globalstar (GLOB)
Launch site: TYURATAM MISSILE AND SPACE COMPLEX (TTMTR)

GLOBALSTAR M094 is part of Globalstar's second-generation satellite fleet, which began launching in 2010.
aabbcc
Your satellite tracking list
Your tracking list is empty




NASA's NSSDC Master Catalog

Two Line Element Set (TLE):
1 39074U 13005C   21027.12590434 -.00000112  00000-0 -46006-4 0  9998
2 39074  51.9978  19.9317 0000199  57.8437 302.2449 12.62266489370074
Source of the keplerian elements: AFSPC